Monroe, MI

6:40 PM EST on February 25, 2017 (GMT -0500)
Custer

Weather History for KTTF - August, 2013

Change the Weather History Date:

Thursday, August 8, 2013

  Actual Average Record
Temperature  
Mean Temperature 74 °F -  
Max Temperature 78 °F 84 °F 98 °F (2001)
Min Temperature 69 °F 63 °F 26 °F (1997)
Cooling Degree Days 8    
Growing Degree Days 24 (Base 50)    
Moisture  
Dew Point 68 °F    
Average Humidity 83    
Maximum Humidity 100    
Minimum Humidity 69    
Precipitation  
Precipitation 0.00 in - - ()
Sea Level Pressure  
Sea Level Pressure 29.95 in    
Wind  
Wind Speed 4 mph (NNE)    
Max Wind Speed 10 mph    
Max Gust Speed 18 mph    
Visibility 9 miles    
Events      
Averages and records for this station are not official NWS values.
T = Trace of Precipitation, MM = Missing Value Source: NWS Daily Summary

Daily Weather History Graph

Daily Weather History Graph

Search for Another Location

Airport or City:

Trip Planner

Search our weather history database for the weather conditions in past years. The results will help you decide how hot, cold, wet, or windy it might be!

Date:

Astronomy

Aug. 08, 2013 Rise Set
Actual Time 6:34 AM EDT 8:43 PM EDT
Civil Twilight 6:03 AM EDT 9:13 PM EDT
Nautical Twilight 5:26 AM EDT 9:51 PM EDT
Astronomical Twilight 4:44 AM EDT 10:32 PM EDT
Moon 8:23 AM EDT (8/8) 9:17 PM EDT (8/8)
Length of Visible Light 15h 09m
Length of Day
14h 08m
Waxing Crescent, 3% of the Moon is Illuminated
Aug 8
Waxing Crescent
Aug 14
First Quarter
Aug 20
Full
Aug 28
Last Quarter
Sep 5
New

Hourly Weather History & Observations

Time (EDT) Temp. Dew Point Humidity Pressure Visibility Wind Dir Wind Speed Gust Speed Precip Events Conditions
12:14 AM 75.2 °F 73.4 °F 94% 29.90 in 7.0 mi Calm Calm - N/A   Mostly Cloudy
12:34 AM 73.4 °F 73.4 °F 100% 29.90 in 5.0 mi Calm Calm - N/A   Scattered Clouds
12:54 AM 73.4 °F 71.6 °F 94% 29.90 in 5.0 mi Calm Calm - N/A   Mostly Cloudy
1:14 AM 73.4 °F 73.4 °F 100% 29.90 in 5.0 mi Calm Calm - N/A   Overcast
1:34 AM 73.4 °F 71.6 °F 94% 29.90 in 5.0 mi Calm Calm - N/A   Mostly Cloudy
1:54 AM 73.4 °F 71.6 °F 94% 29.90 in 5.0 mi Calm Calm - N/A   Scattered Clouds
2:14 AM 71.6 °F 71.6 °F 100% 29.90 in 4.0 mi Calm Calm - N/A   Scattered Clouds
2:35 AM 71.6 °F 71.6 °F 100% 29.90 in 3.0 mi West 3.5 mph - N/A   Mostly Cloudy
2:55 AM 73.4 °F 71.6 °F 94% 29.90 in 2.5 mi Calm Calm - N/A   Mostly Cloudy
3:15 AM 73.4 °F 71.6 °F 94% 29.91 in 2.5 mi WNW 3.5 mph - N/A   Mostly Cloudy
3:35 AM 73.4 °F 71.6 °F 94% 29.91 in 4.0 mi NW 5.8 mph - N/A   Mostly Cloudy
3:55 AM 73.4 °F 71.6 °F 94% 29.90 in 5.0 mi NNW 4.6 mph - N/A   Clear
4:15 AM 73.4 °F 69.8 °F 88% 29.91 in 7.0 mi NNW 3.5 mph - N/A   Clear
4:35 AM 71.6 °F 69.8 °F 94% 29.90 in 10.0 mi North 3.5 mph - N/A   Clear
4:55 AM 71.6 °F 69.8 °F 94% 29.91 in 10.0 mi North 4.6 mph - N/A   Clear
5:15 AM 71.6 °F 68.0 °F 88% 29.91 in 10.0 mi North 4.6 mph - N/A   Clear
5:36 AM 69.8 °F 66.2 °F 88% 29.92 in 10.0 mi North 4.6 mph - N/A   Clear
5:56 AM 69.8 °F 66.2 °F 88% 29.92 in 10.0 mi NNE 4.6 mph - N/A   Clear
6:16 AM 69.8 °F 68.0 °F 94% 29.94 in 10.0 mi NNE 4.6 mph - N/A   Mostly Cloudy
6:36 AM 71.6 °F 68.0 °F 88% 29.94 in 10.0 mi NNE 3.5 mph - N/A   Overcast
6:56 AM 71.6 °F 66.2 °F 83% 29.94 in 10.0 mi NNE 8.1 mph - N/A   Overcast
7:16 AM 69.8 °F 66.2 °F 88% 29.94 in 10.0 mi NNE 6.9 mph - N/A   Overcast
7:36 AM 69.8 °F 66.2 °F 88% 29.95 in 10.0 mi NNE 6.9 mph - N/A   Overcast
7:56 AM 69.8 °F 64.4 °F 83% 29.95 in 10.0 mi NNE 10.4 mph - N/A   Mostly Cloudy
8:16 AM 69.8 °F 64.4 °F 83% 29.96 in 10.0 mi NNE 5.8 mph - N/A   Scattered Clouds
8:36 AM 69.8 °F 64.4 °F 83% 29.97 in 10.0 mi NE 8.1 mph - N/A   Mostly Cloudy
8:57 AM 71.6 °F 64.4 °F 78% 29.96 in 10.0 mi NE 8.1 mph 16.1 mph N/A   Overcast
9:12 AM 71.6 °F 66.2 °F 83% 29.96 in 10.0 mi NNE 6.9 mph 18.4 mph N/A   Overcast
9:32 AM 71.6 °F 66.2 °F 83% 29.96 in 10.0 mi NE 9.2 mph - N/A   Mostly Cloudy
9:52 AM 73.4 °F 66.2 °F 78% 29.97 in 10.0 mi NE 9.2 mph - N/A   Mostly Cloudy
10:12 AM 71.6 °F 66.2 °F 83% 29.97 in 10.0 mi NE 5.8 mph - N/A   Overcast
10:32 AM 73.4 °F 66.2 °F 78% 29.98 in 10.0 mi NE 8.1 mph - N/A   Overcast
10:52 AM 73.4 °F 66.2 °F 78% 29.99 in 10.0 mi NNE 6.9 mph - N/A   Overcast
11:12 AM 73.4 °F 66.2 °F 78% 30.00 in 10.0 mi North 9.2 mph - N/A   Overcast
11:32 AM 73.4 °F 66.2 °F 78% 30.00 in 10.0 mi North 8.1 mph - N/A   Overcast
11:52 AM 73.4 °F 66.2 °F 78% 30.00 in 10.0 mi NNE 8.1 mph - N/A   Overcast
12:13 PM 73.4 °F 66.2 °F 78% 30.00 in 10.0 mi NNE 5.8 mph - N/A   Overcast
12:33 PM 73.4 °F 66.2 °F 78% 29.99 in 10.0 mi NNE 6.9 mph - N/A   Overcast
12:53 PM 75.2 °F 68.0 °F 78% 29.98 in 10.0 mi NE 5.8 mph - N/A   Overcast
1:13 PM 75.2 °F 68.0 °F 78% 29.98 in 10.0 mi NNE 5.8 mph - N/A   Overcast
1:33 PM 75.2 °F 68.0 °F 78% 29.98 in 10.0 mi North 8.1 mph - N/A   Overcast
1:53 PM 75.2 °F 68.0 °F 78% 29.99 in 10.0 mi NNE 5.8 mph - N/A   Overcast
2:13 PM 75.2 °F 68.0 °F 78% 29.99 in 10.0 mi North 10.4 mph - N/A   Overcast
2:33 PM 75.2 °F 66.2 °F 73% 29.98 in 10.0 mi North 8.1 mph - N/A   Overcast
2:53 PM 75.2 °F 66.2 °F 73% 29.97 in 10.0 mi North 5.8 mph - N/A   Overcast
3:13 PM 75.2 °F 68.0 °F 78% 29.97 in 10.0 mi North 6.9 mph - N/A   Overcast
3:34 PM 75.2 °F 68.0 °F 78% 29.97 in 10.0 mi NNE 4.6 mph - N/A   Overcast
3:54 PM 75.2 °F 68.0 °F 78% 29.97 in 10.0 mi North 6.9 mph - N/A   Overcast
4:14 PM 77.0 °F 68.0 °F 74% 29.95 in 10.0 mi NNE 5.8 mph - N/A   Scattered Clouds
4:34 PM 78.8 °F 68.0 °F 69% 29.95 in 10.0 mi Calm Calm - N/A   Clear
4:54 PM 78.8 °F 68.0 °F 69% 29.95 in 10.0 mi NNE 4.6 mph - N/A   Scattered Clouds
5:14 PM 77.0 °F 68.0 °F 74% 29.95 in 10.0 mi North 3.5 mph - N/A   Mostly Cloudy
5:34 PM 75.2 °F 69.8 °F 83% 29.95 in 10.0 mi North 3.5 mph - N/A   Overcast
5:54 PM 75.2 °F 69.8 °F 83% 29.95 in 10.0 mi Calm Calm - N/A   Overcast
6:14 PM 77.0 °F 69.8 °F 78% 29.94 in 10.0 mi NNW 3.5 mph - N/A   Overcast
6:34 PM 77.0 °F 68.0 °F 74% 29.94 in 10.0 mi North 5.8 mph - N/A   Overcast
6:55 PM 77.0 °F 69.8 °F 78% 29.95 in 10.0 mi North 4.6 mph - N/A   Scattered Clouds
7:15 PM 77.0 °F 68.0 °F 74% 29.95 in 10.0 mi Calm Calm - N/A   Mostly Cloudy
7:35 PM 77.0 °F 66.2 °F 69% 29.95 in 10.0 mi NNE 3.5 mph - N/A   Overcast
7:55 PM 75.2 °F 66.2 °F 73% 29.95 in 10.0 mi Calm Calm - N/A   Overcast
8:15 PM 75.2 °F 68.0 °F 78% 29.95 in 10.0 mi Calm Calm - N/A   Mostly Cloudy
8:35 PM 75.2 °F 68.0 °F 78% 29.96 in 10.0 mi Calm Calm - N/A   Overcast
8:55 PM 73.4 °F 66.2 °F 78% 29.95 in 10.0 mi ENE 3.5 mph - N/A   Scattered Clouds
9:15 PM 73.4 °F 66.2 °F 78% 29.95 in 10.0 mi Calm Calm - N/A   Overcast
9:35 PM 71.6 °F 66.2 °F 83% 29.96 in 7.0 mi ENE 3.5 mph - N/A   Overcast
9:56 PM 71.6 °F 66.2 °F 83% 29.97 in 10.0 mi East 3.5 mph - N/A   Scattered Clouds
10:16 PM 71.6 °F 66.2 °F 83% 29.97 in 10.0 mi ENE 10.4 mph - N/A   Clear
10:36 PM 71.6 °F 64.4 °F 78% 29.97 in 10.0 mi ENE 8.1 mph - N/A   Scattered Clouds
10:56 PM 71.6 °F 64.4 °F 78% 29.98 in 10.0 mi East 8.1 mph - N/A   Mostly Cloudy
11:16 PM 69.8 °F 64.4 °F 83% 29.97 in 10.0 mi ENE 6.9 mph - N/A   Overcast
11:36 PM 69.8 °F 62.6 °F 78% 29.98 in 10.0 mi East 6.9 mph - N/A   Mostly Cloudy
11:56 PM 69.8 °F 62.6 °F 78% 29.98 in 10.0 mi ENE 4.6 mph - N/A   Overcast